Total_Precipitation_Accumulation
3.85 3.91 3.73 3.72 3.54 3.70 3.84 3.85 3.59 3.88 4.15 4.14 3.98 3.88 3.80 3.40 3.19 3.12 3.29 3.44 3.34 3.33 3.66 3.75 3.68 3.52 3.15 2.73 2.53 2.39 2.35 2.16 1.97 1.72 1.61 1.52 1.43 1.31 1.20 1.17 1.12 1.04 1.04
3.56 3.46 3.54 3.68 3.48 3.52 3.53 3.56 3.59 4.03 4.33 4.37 4.06 3.82 3.80 3.67 3.46 3.42 3.51 3.73 3.66 3.38 3.58 4.09 4.35 4.27 4.00 3.61 3.19 2.88 2.75 2.52 2.22 1.83 1.66 1.61 1.52 1.44 1.38 1.36 1.24 1.10 1.08
3.51 3.45 3.42 3.27 3.27 3.36 3.56 3.61 3.74 4.03 4.00 4.08 4.09 3.89 3.79 3.65 3.62 3.60 3.67 3.68 3.39 3.51 3.79 4.13 4.38 4.39 4.41 4.27 4.06 3.75 3.39 2.95 2.52 2.10 1.78 1.67 1.56 1.48 1.45 1.44 1.42 1.34 1.21
3.23 3.29 3.12 3.01 3.06 2.95 3.14 3.46 3.51 3.63 3.87 4.08 4.04 3.74 3.71 3.76 3.58 3.57 3.44 3.27 3.41 3.19 3.69 4.16 4.30 4.09 4.26 4.57 4.82 4.85 4.27 3.49 2.87 2.43 2.09 1.91 1.80 1.60 1.45 1.41 1.42 1.41 1.28
2.65 2.78 2.86 2.95 2.79 2.76 2.89 2.78 3.36 3.58 3.74 3.93 3.57 3.49 3.35 3.56 3.55 3.33 3.31 3.08 3.21 3.21 3.37 3.64 3.89 3.71 3.98 4.70 5.33 5.57 5.20 4.38 3.54 3.01 2.72 2.50 2.35 2.11 1.75 1.57 1.47 1.39 1.33
2.56 2.64 2.63 2.73 2.63 2.81 3.06 3.28 3.63 3.58 3.46 3.60 3.09 3.15 3.18 2.95 3.04 3.00 2.95 3.02 2.99 2.71 2.94 3.36 3.78 3.29 3.58 4.26 4.80 5.25 5.56 5.32 4.55 3.85 3.47 3.31 3.19 2.78 2.19 1.84 1.63 1.54 1.47
2.52 2.84 2.59 2.82 2.66 2.82 2.96 3.07 3.28 3.32 3.19 3.30 3.51 3.47 3.06 2.67 2.63 2.54 2.65 2.94 2.82 2.76 2.99 3.54 3.85 3.71 3.29 3.27 3.50 4.10 5.07 5.49 5.27 4.62 4.06 3.70 3.60 3.27 2.62 2.21 1.91 1.77 1.72
2.28 2.30 2.70 2.69 2.72 3.00 2.99 2.99 3.21 3.16 3.02 3.12 3.44 3.72 3.38 3.12 2.64 2.05 2.24 2.32 2.45 2.75 2.87 2.90 3.19 3.64 3.48 3.52 2.93 2.98 4.03 4.92 5.53 5.47 4.91 4.26 3.89 3.55 3.13 2.74 2.36 2.10 2.01
1.99 2.12 2.30 2.53 2.78 2.68 2.89 3.00 2.91 3.07 3.15 3.08 3.10 3.62 3.61 3.33 2.86 2.28 2.03 2.15 2.37 2.70 2.69 2.72 2.73 2.90 2.96 3.40 3.60 3.19 3.23 3.68 4.79 5.72 5.86 5.24 4.40 3.77 3.47 3.33 3.05 2.70 2.43
1.94 1.95 2.06 2.29 2.53 2.43 2.75 2.53 2.74 3.15 3.20 2.97 2.92 2.90 2.98 3.13 3.18 2.75 2.31 2.06 2.16 2.35 2.45 2.32 2.46 2.70 2.81 3.06 3.31 3.11 2.69 2.80 3.72 4.82 5.58 5.57 4.88 4.28 3.97 3.89 3.95 3.73 3.27
2.13 1.89 2.00 2.24 2.38 2.35 2.44 2.51 2.92 2.96 2.94 2.93 2.93 2.96 2.94 2.91 2.81 2.78 2.57 2.26 2.06 1.85 1.88 2.01 2.26 2.45 2.51 2.73 3.13 2.91 2.64 2.45 2.74 3.42 4.12 4.66 4.83 4.59 4.19 4.02 4.43 4.71 4.49
2.28 2.07 2.07 2.26 2.25 2.27 2.33 2.42 2.71 2.72 2.90 3.06 3.07 2.94 3.03 2.87 2.75 2.92 2.55 2.22 2.06 1.56 1.52 1.64 1.86 2.00 2.15 2.34 2.46 2.54 2.53 2.51 2.50 2.68 2.89 3.28 3.76 3.90 3.90 4.08 4.56 4.93 5.09
1.93 2.00 2.08 2.27 2.17 2.17 2.27 2.57 2.71 2.68 2.85 2.91 2.85 2.79 2.82 2.56 2.60 2.74 2.56 2.08 1.93 1.57 1.61 1.50 1.58 1.92 2.05 2.37 2.48 2.50 2.37 2.47 2.29 2.22 2.33 2.42 2.57 2.90 3.31 3.69 4.19 4.62 5.03
1.85 1.93 2.03 2.03 2.03 2.11 2.16 2.62 2.50 2.57 2.75 2.67 2.47 2.80 2.67 2.32 2.54 2.66 2.68 2.80 2.40 2.03 1.94 1.67 1.62 1.96 2.46 2.66 2.92 2.89 2.30 2.34 2.18 2.03 2.02 2.14 2.12 2.25 2.44 2.70 3.08 3.43 3.85
1.94 2.03 2.10 2.09 2.11 2.30 2.46 2.70 2.52 2.56 2.73 2.53 2.52 2.80 2.62 2.37 2.46 2.52 2.72 3.03 3.09 2.62 2.23 2.08 2.02 2.03 2.32 2.64 3.03 2.67 2.43 2.55 2.33 2.16 2.09 2.10 2.07 2.07 2.16 2.22 2.29 2.40 2.56
2.06 2.20 2.34 2.31 2.37 2.40 2.51 2.66 2.45 2.57 2.63 2.51 2.61 2.82 2.77 2.58 2.66 2.62 2.72 2.95 3.18 3.06 2.52 2.06 2.11 2.10 2.23 2.14 2.62 2.43 2.45 2.59 2.29 2.12 2.05 2.06 2.10 2.04 2.01 2.07 2.10 2.08 2.04
2.13 2.16 2.28 2.34 2.30 2.34 2.46 2.59 2.37 2.46 2.47 2.51 2.53 2.67 2.75 2.99 2.99 2.91 3.03 3.07 3.12 3.19 2.80 2.25 2.27 2.39 2.42 2.30 2.30 2.24 2.20 2.21 2.10 2.17 2.01 1.98 2.01 1.98 1.81 1.70 1.75 1.79 1.79
1.97 2.04 2.11 2.13 2.06 2.19 2.40 2.40 2.27 2.36 2.44 2.42 2.62 2.90 2.83 2.97 3.03 3.10 3.25 3.02 3.07 3.41 3.25 2.78 2.68 2.81 2.74 2.54 2.46 2.37 2.03 1.89 1.89 2.16 2.00 1.89 1.86 1.87 1.88 1.67 1.56 1.58 1.61
2.05 2.07 2.09 2.03 2.01 2.09 2.23 2.22 2.38 2.48 2.50 2.56 2.75 2.88 3.00 3.34 3.12 3.16 3.14 3.00 3.02 3.26 3.46 3.14 2.87 3.04 2.92 2.69 2.72 2.41 2.16 2.19 1.90 1.98 2.04 1.89 1.78 1.78 1.82 1.81 1.66 1.55 1.49
2.28 2.34 2.33 2.33 2.37 2.32 2.30 2.37 2.53 2.63 2.65 2.67 2.84 2.92 3.00 3.18 3.26 3.44 3.39 3.40 3.54 3.70 3.81 3.55 3.25 3.29 3.27 3.21 3.10 2.67 2.52 2.38 2.19 1.94 2.07 1.96 1.86 1.78 1.76 1.72 1.65 1.59 1.52
2.43 2.62 2.63 2.62 2.72 2.68 2.46 2.64 2.76 2.75 2.97 2.91 2.97 2.92 2.92 3.15 3.30 3.46 3.24 3.42 3.79 3.94 3.99 3.93 3.79 3.89 3.76 3.69 3.29 2.93 2.82 2.68 2.46 2.12 2.08 1.93 1.87 1.74 1.72 1.76 1.75 1.71 1.66
2.81 2.93 2.89 2.86 2.83 2.48 2.70 2.89 2.94 3.03 3.14 3.08 3.02 3.04 3.01 3.03 2.96 2.95 2.96 3.12 3.40 3.56 3.72 3.90 3.93 3.94 3.88 3.80 3.65 3.38 3.04 2.83 2.51 2.22 2.35 2.17 2.03 1.91 1.73 1.65 1.85 1.81 1.73
2.78 2.85 2.90 2.98 2.79 2.74 2.88 2.71 2.76 2.75 2.84 2.93 2.98 3.03 2.78 2.63 2.83 2.61 2.75 2.85 2.79 2.82 2.95 3.25 3.38 3.32 3.60 3.81 3.86 3.41 3.06 2.77 2.49 2.35 2.52 2.28 2.06 1.94 1.81 1.82 1.99 1.82 1.73
3.07 3.10 3.10 3.10 3.00 2.81 2.80 2.59 2.69 2.56 2.57 2.62 2.69 2.77 2.75 2.64 2.64 2.74 2.73 2.59 2.32 2.24 2.37 2.36 2.38 2.61 3.00 3.47 3.67 3.52 3.53 3.23 2.81 2.53 2.54 2.37 2.08 1.95 1.80 1.76 1.97 1.86 1.72
3.31 3.34 3.32 3.29 3.23 3.17 3.14 2.79 2.72 2.52 2.56 2.57 2.65 2.69 2.66 2.49 2.65 2.60 2.52 2.44 2.29 2.10 2.13 2.21 2.20 2.41 2.70 3.00 3.30 3.41 3.36 3.32 2.88 2.49 2.42 2.35 2.12 2.11 2.00 1.79 1.74 1.84 1.72
3.37 3.40 3.28 3.28 3.20 3.13 3.25 2.98 2.79 2.51 2.52 2.57 2.71 2.76 2.75 2.53 2.60 2.55 2.41 2.41 2.25 2.15 2.22 2.20 2.20 2.19 2.19 2.52 2.91 2.90 2.95 3.10 2.88 2.61 2.35 2.40 2.22 2.33 2.24 1.83 1.61 1.57 1.57